Location: Kruen
(47.5000°N, 11.5000°E)
Time: 17:22:32
(UTC+01:00)

ACS3 Solar Sail - Visible Passes

Search period start: 14 February 2026 00:00
Search period end: 24 February 2026 00:00
Orbit: 899 x 968 km, 97.2° (Epoch: 13 February)

Date Brightness Start Highest point End Pass type
(mag) Time Alt. Az. Time Alt. Az. Time Alt. Az.
17 Feb 4.4 02:32:01 10° N 02:32:04 10° N 02:32:04 10° N visible
18 Feb 4.3 02:44:22 10° N 02:44:38 11° N 02:44:38 11° N visible
19 Feb 4.2 02:56:45 10° N 02:57:09 12° N 02:57:09 12° N visible
20 Feb 4.1 03:09:07 10° N 03:09:37 13° N 03:09:37 13° N visible
21 Feb 4.0 03:21:28 10° N 03:22:03 13° N 03:22:03 13° N visible
22 Feb 4.0 03:33:50 10° N 03:34:27 13° N 03:34:27 13° N visible
23 Feb 4.4 02:02:46 10° NNE 02:03:04 12° NNE 02:03:04 12° NNE visible
23 Feb 3.9 03:46:13 10° N 03:46:49 12° NNW 03:46:49 12° NNW visible
